Surface/Precipitation History
03/22/2017 08:21  to  3/23/2017 08:21
Change End Date:
Date/Time
(MDT)
Sf
Temp Chem Water Layer Surface Precipitation
Sfc Pvt Sub Frz Factor Pct Dpth DpthThk IcePct Cond Salin FI Type Intens Accum Rate
03/23/2017 08:15 Wet 33.8F - 37F 32F 5 0% 0.00 in - 0% 0 mhos 25 - None None 0.26 in 0.0 iph
03/23/2017 08:12 Wet 33.6F - 37F 32F 10 0% 0.00 in - 0% 0 mhos 27 - None None 0.27 in 0.0 iph
03/23/2017 08:02 Wet 33.6F - 37F 32F 10 0% 0.00 in - 0% 0 mhos 25 - None None 0.27 in 0.0 iph
03/23/2017 08:00 Wet 33.4F - 37F 32F 15 0% 0.00 in - 0% 0 mhos 23 - None None 0.27 in 0.0 iph
03/23/2017 07:52 Wet 33.4F - 37F 32F 10 0% 0.00 in - 0% 0 mhos 22 - None None 0.28 in 0.0 iph
03/23/2017 07:45 Wet 33.4F - 37F 32F 10 0% 0.00 in - 0% 0 mhos 20 - None None 0.28 in 0.0 iph
03/23/2017 07:42 Wet 33.4F - 37F 32F 10 0% 0.00 in - 0% 0 mhos 19 - None None 0.28 in 0.0 iph
03/23/2017 07:32 Wet 33.4F - 37F 32F 5 0% 0.00 in - 0% 0 mhos 21 - None None 0.28 in 0.0 iph
03/23/2017 07:30 Wet 33.4F - 37F 32F 10 0% 0.00 in - 0% 0 mhos 21 - None None 0.28 in 0.0 iph
03/23/2017 07:22 Wet 33.6F - 37F 32F 10 0% 0.00 in - 0% 0 mhos 20 - None None 0.28 in 0.0 iph
03/23/2017 07:15 Wet 34.0F - 37F 32F 15 0% 0.00 in - 0% 0 mhos 19 - None None 0.28 in 0.0 iph
03/23/2017 07:12 Wet 33.8F - 37F 32F 15 0% 0.00 in - 0% 0 mhos 21 - Yes Slight 0.28 in 0.0 iph
03/23/2017 07:02 Wet 33.6F - 37F 32F 10 0% 0.00 in - 0% 0 mhos 21 - None None 0.28 in 0.0 iph
03/23/2017 07:00 Wet 33.6F - 37F 32F 10 0% 0.00 in - 0% 0 mhos 20 - None None 0.28 in 0.0 iph
03/23/2017 06:52 Wet 33.6F - 37F 32F 10 0% 0.00 in - 0% 0 mhos 21 - Yes Slight 0.28 in 0.0 iph
Date/Time
(MDT)
Sf
Temp Chem Water Layer Surface Precipitation
Sfc Pvt Sub Frz Factor Pct Dpth DpthThk IcePct Cond Salin FI Type Intens Accum Rate
03/23/2017 06:45 Wet 33.6F - 37F 32F 5 0% 0.00 in - 0% 0 mhos 21 - Yes Slight 0.28 in 0.0 iph
03/23/2017 06:42 Wet 33.6F - 37F 32F 10 0% 0.00 in - 0% 0 mhos 19 - Yes Slight 0.28 in 0.0 iph
03/23/2017 06:32 Wet 33.4F - 37F 32F 5 0% 0.00 in - 0% 0 mhos 28 - Yes Slight 0.28 in 0.0 iph
03/23/2017 06:30 Wet 33.4F - 37F 32F 5 0% 0.00 in - 0% 0 mhos 28 - Yes Moderate 0.28 in 0.0 iph
03/23/2017 06:22 Wet 33.8F - 37F 32F 10 0% 0.00 in - 0% 0 mhos 26 - Snow Slight 0.27 in 0.0 iph
03/23/2017 06:15 Wet 34.0F - 37F 32F 5 0% 0.00 in - 0% 0 mhos 22 - Yes Slight 0.27 in 0.0 iph
03/23/2017 06:11 Wet 34.0F - 37F 32F 5 0% 0.00 in - 0% 0 mhos 21 - Yes Moderate 0.27 in 0.0 iph
03/23/2017 06:01 Wet 34.3F - 37F 32F 10 0% 0.00 in - 0% 0 mhos 20 - Yes Slight 0.27 in 0.0 iph
03/23/2017 06:00 Wet 34.5F - 37F 32F 15 0% 0.00 in - 0% 0 mhos 18 - Yes Slight 0.27 in 0.0 iph
03/23/2017 05:51 Wet 34.0F - 37F 32F 5 0% 0.00 in - 0% 0 mhos 16 - Yes Slight 0.27 in 0.0 iph
03/23/2017 05:45 Wet 34.0F - 37F 32F 10 0% 0.00 in - 0% 0 mhos 14 - Yes Slight 0.27 in 0.0 iph
03/23/2017 05:41 Wet 34.0F - 37F 32F 5 0% 0.00 in - 0% 0 mhos 13 - Yes Slight 0.27 in 0.0 iph
03/23/2017 05:31 Wet 34.0F - 37F 32F 5 0% 0.00 in - 0% 0 mhos 10 - None None 0.27 in 0.0 iph
03/23/2017 05:30 Wet 34.2F - 37F 32F 5 0% 0.00 in - 0% 0 mhos 11 - Yes Slight 0.27 in 0.0 iph
03/23/2017 05:21 Wet 34.2F - 37F 32F 5 0% 0.00 in - 0% 0 mhos 11 - None None 0.27 in 0.0 iph
Date/Time
(MDT)
Sf
Temp Chem Water Layer Surface Precipitation
Sfc Pvt Sub Frz Factor Pct Dpth DpthThk IcePct Cond Salin FI Type Intens Accum Rate
03/23/2017 05:15 Wet 34.2F - 37F 32F 5 0% 0.00 in - 0% 0 mhos 11 - None None 0.27 in 0.0 iph
03/23/2017 05:11 Wet 34.0F - 37F 32F 5 0% 0.00 in - 0% 0 mhos 11 - None None 0.27 in 0.0 iph
03/23/2017 05:01 Wet 34.0F - 37F 32F 10 0% 0.00 in - 0% 0 mhos 13 - None None 0.27 in 0.0 iph
03/23/2017 05:00 Wet 33.8F - 37F 32F 5 0% 0.00 in - 0% 0 mhos 13 - None None 0.27 in 0.0 iph
03/23/2017 04:51 Wet 34.2F - 37F 32F 10 0% 0.00 in - 0% 0 mhos 14 - None None 0.27 in 0.0 iph
03/23/2017 04:45 Wet 34.3F - 37F 32F 10 0% 0.00 in - 0% 0 mhos 15 - Yes Slight 0.27 in 0.0 iph
03/23/2017 04:41 Wet 34.5F - 37F 32F 5 0% 0.00 in - 0% 0 mhos 15 - None None 0.27 in 0.0 iph
03/23/2017 04:31 Wet 34.5F - 37F 32F 5 0% 0.00 in - 0% 0 mhos 15 - None None 0.27 in 0.0 iph
03/23/2017 04:30 Wet 34.5F - 37F 32F 5 0% 0.00 in - 0% 0 mhos 15 - None None 0.27 in 0.0 iph
03/23/2017 04:21 Wet 34.7F - 37F 32F 5 0% 0.00 in - 0% 0 mhos 15 - None None 0.27 in 0.0 iph
03/23/2017 04:15 Wet 34.5F - 37F 32F 5 0% 0.00 in - 0% 0 mhos 13 - None None 0.27 in 0.0 iph
03/23/2017 04:11 Wet 34.5F - 37F 32F 5 0% 0.00 in - 0% 0 mhos 13 - None None 0.27 in 0.0 iph
03/23/2017 04:01 Wet 34.5F - 37F 32F 10 0% 0.00 in - 0% 0 mhos 15 - None None 0.27 in 0.0 iph
03/23/2017 04:00 Wet 34.7F - 37F 32F 10 0% 0.00 in - 0% 0 mhos 14 - None None 0.27 in 0.0 iph
03/23/2017 03:51 Wet 34.7F - 37F 32F 5 0% 0.00 in - 0% 0 mhos 13 - None None 0.27 in 0.0 iph
Date/Time
(MDT)
Sf
Temp Chem Water Layer Surface Precipitation
Sfc Pvt Sub Frz Factor Pct Dpth DpthThk IcePct Cond Salin FI Type Intens Accum Rate
03/23/2017 03:45 Wet 34.7F - 37F 32F 5 0% 0.00 in - 0% 0 mhos 13 - None None 0.27 in 0.0 iph
03/23/2017 03:41 Wet 34.7F - 37F 32F 5 0% 0.00 in - 0% 0 mhos 14 - None None - 0.0 iph
03/23/2017 03:31 Wet 34.7F - 37F 32F 5 0% 0.00 in - 0% 0 mhos 15 - None None - 0.0 iph
03/23/2017 03:30 Wet 34.7F - 37F 32F 5 0% 0.00 in - 0% 0 mhos 15 - None None - 0.0 iph
03/23/2017 03:21 Wet 34.9F - 37F 32F 5 0% 0.00 in - 0% 0 mhos 13 - None None - 0.0 iph
03/23/2017 03:15 Wet 34.9F - 37F 32F 5 0% 0.00 in - 0% 0 mhos 15 - None None - 0.0 iph
03/23/2017 03:11 Wet 34.7F - 37F 32F 5 0% 0.00 in - 0% 0 mhos 12 - None None - 0.0 iph
03/23/2017 03:01 Wet 35.1F - 37F 32F 5 0% 0.00 in - 0% 0 mhos 15 - None None - 0.0 iph
03/23/2017 03:00 Wet 35.1F - 37F 32F 5 0% 0.00 in - 0% 0 mhos 15 - None None - 0.0 iph
03/23/2017 02:50 Wet 35.4F - 37F 32F 5 0% 0.00 in - 0% 0 mhos 12 - None None - 0.0 iph
03/23/2017 02:45 Wet 35.2F - 37F 32F 5 0% 0.00 in - 0% 0 mhos 15 - None None - 0.0 iph
03/23/2017 02:40 Wet 35.1F - 37F 32F 5 0% 0.00 in - 0% 0 mhos 15 - None None - 0.0 iph
03/23/2017 02:30 Wet 35.2F - 37F 32F 5 0% 0.00 in - 0% 0 mhos 14 - None None - 0.0 iph
03/23/2017 02:30 Wet 35.2F - 37F 32F 5 0% 0.00 in - 0% 0 mhos 14 - None None - 0.0 iph
03/23/2017 02:20 Wet 35.4F - 37F 32F 5 0% 0.00 in - 0% 0 mhos 15 - Yes Slight - 0.0 iph
Date/Time
(MDT)
Sf
Temp Chem Water Layer Surface Precipitation
Sfc Pvt Sub Frz Factor Pct Dpth DpthThk IcePct Cond Salin FI Type Intens Accum Rate
03/23/2017 02:15 Wet 35.6F - 37F 32F 5 0% 0.00 in - 0% 0 mhos 13 - Yes Slight - 0.0 iph
03/23/2017 02:10 Wet 35.6F - 37F 32F 10 0% 0.00 in - 0% 0 mhos 13 - Yes Slight - 0.0 iph
03/23/2017 02:00 Wet 35.6F - 37F 32F 15 0% 0.00 in - 0% 0 mhos 10 - Yes Slight - 0.0 iph
03/23/2017 02:00 Wet 35.6F - 37F 32F 15 0% 0.00 in - 0% 0 mhos 10 - Yes Slight - 0.0 iph
03/23/2017 01:50 Wet 35.4F - 37F 32F 5 0% 0.00 in - 0% 0 mhos 11 - None None - 0.0 iph
03/23/2017 01:45 Wet 35.6F - 37F 32F 5 0% 0.00 in - 0% 0 mhos 8 - None None - 0.0 iph
03/23/2017 01:40 Wet 35.8F - 37F 32F 10 0% 0.00 in - 0% 0 mhos 10 - Yes Slight - 0.0 iph
03/23/2017 01:30 Wet 35.4F - 37F 32F 5 0% 0.00 in - 0% 0 mhos 11 - Yes Moderate - 0.0 iph
03/23/2017 01:30 Wet 35.4F - 37F 32F 5 0% 0.00 in - 0% 0 mhos 11 - None None - 0.0 iph
03/23/2017 01:20 Wet 35.6F - 37F 32F 5 0% 0.00 in - 0% 0 mhos 9 - None None - 0.0 iph
03/23/2017 01:15 Wet 35.8F - 37F 32F 5 0% 0.00 in - 0% 0 mhos 10 - None None - 0.0 iph
03/23/2017 01:10 Wet 35.6F - 37F 32F 5 0% 0.00 in - 0% 0 mhos 8 - None None - 0.0 iph
03/23/2017 01:00 Wet 35.4F - 37F 32F 5 0% 0.00 in - 0% 0 mhos 9 - None None - 0.0 iph
03/23/2017 01:00 Wet 35.4F - 37F 32F 5 0% 0.00 in - 0% 0 mhos 9 - None None - 0.0 iph
03/23/2017 00:50 Wet 35.8F - 37F 32F 10 0% 0.00 in - 0% 0 mhos 7 - None None - 0.0 iph
Date/Time
(MDT)
Sf
Temp Chem Water Layer Surface Precipitation
Sfc Pvt Sub Frz Factor Pct Dpth DpthThk IcePct Cond Salin FI Type Intens Accum Rate
03/23/2017 00:45 Wet 35.8F - 37F 32F 10 0% 0.00 in - 0% 0 mhos 5 - None None - 0.0 iph
03/23/2017 00:40 Wet 36.1F - 37F 32F 5 0% 0.00 in - 0% 0 mhos 5 - Snow Slight - 0.0 iph
03/23/2017 00:30 Wet 36.1F - 37F 32F 5 0% 0.00 in - 0% 0 mhos 6 - Snow Slight - 0.0 iph
03/23/2017 00:30 Wet 36.1F - 37F 32F 5 0% 0.00 in - 0% 0 mhos 6 - Snow Slight - 0.0 iph
03/23/2017 00:20 Wet 36.3F - 37F 32F 5 0% 0.00 in - 0% 0 mhos 6 - Yes Slight - 0.0 iph
03/23/2017 00:15 Wet 36.5F - 37F 32F 10 0% 0.00 in - 0% 0 mhos 5 - None None - 0.0 iph
03/23/2017 00:10 Wet 36.1F - 37F 32F 10 0% 0.00 in - 0% 0 mhos 6 - None None - 0.0 iph
03/23/2017 00:00 Wet 35.4F - 37F 32F 15 0% 0.00 in - 0% 0 mhos 7 - Snow Slight - 0.0 iph
03/23/2017 00:00 Wet 35.4F - 37F 32F 15 0% 0.00 in - 0% 0 mhos 7 - Snow Slight - 0.0 iph
03/22/2017 23:50 Wet 36.5F - 37F 32F 5 0% 0.00 in - 0% 0 mhos 7 - Yes Slight - 0.0 iph
03/22/2017 23:45 Wet 36.7F - 37F 32F 5 0% 0.00 in - 0% 0 mhos 8 - None None - 0.0 iph
03/22/2017 23:39 Wet 36.9F - 37F 32F 5 0% 0.00 in - 0% 0 mhos 5 - Yes Moderate - 0.0 iph
03/22/2017 23:30 Wet 36.7F - 37F 32F 5 0% 0.00 in - 0% 0 mhos 6 - None None - 0.0 iph
03/22/2017 23:29 Wet 36.7F - 38F 32F 5 0% 0.00 in - 0% 0 mhos 6 - None None - 0.0 iph
03/22/2017 23:19 Wet 36.3F - 37F 32F 5 0% 0.00 in - 0% 0 mhos 4 - None None - 0.0 iph
Date/Time
(MDT)
Sf
Temp Chem Water Layer Surface Precipitation
Sfc Pvt Sub Frz Factor Pct Dpth DpthThk IcePct Cond Salin FI Type Intens Accum Rate
03/22/2017 23:15 Wet 36.5F - 37F 32F 5 0% 0.00 in - 0% 0 mhos 3 - None None - 0.0 iph
03/22/2017 23:09 Wet 36.7F - 37F 32F 10 0% 0.00 in - 0% 0 mhos 6 - None None - 0.0 iph
03/22/2017 23:00 Wet 36.7F - 37F 32F 10 0% 0.00 in - 0% 0 mhos 9 - Yes Slight - 0.0 iph
03/22/2017 22:59 Wet 36.7F - 37F 32F 10 0% 0.00 in - 0% 0 mhos 9 - None None - 0.0 iph
03/22/2017 22:49 Wet 36.7F - 37F 32F 5 0% 0.00 in - 0% 0 mhos 4 - Yes Slight - 0.0 iph
03/22/2017 22:45 Wet 36.9F - 37F 32F 10 0% 0.10 in - 0% 0 mhos 3 - Yes Moderate - 0.0 iph
03/22/2017 22:39 Wet 36.7F - 37F 32F 15 0% 0.00 in - 0% 0 mhos 14 - Snow Slight - 0.0 iph
03/22/2017 22:30 Wet 36.3F - 37F 32F 15 0% 0.00 in - 0% 0 mhos 6 - Snow Slight - 0.0 iph
03/22/2017 22:29 Wet 36.1F - 37F 32F 15 0% 0.00 in - 0% 0 mhos 13 - Snow Slight - 0.0 iph
03/22/2017 22:19 Wet 36.7F - 37F 32F 10 0% 0.00 in - 0% 0 mhos 15 - None None - 0.0 iph
03/22/2017 22:15 Wet 36.7F - 37F 32F 5 0% 0.00 in - 0% 0 mhos 4 - Yes Slight - 0.0 iph
03/22/2017 22:09 Wet 36.3F - 37F 32F 15 0% 0.10 in - 0% 0 mhos 4 - Yes Slight - 0.0 iph
03/22/2017 22:00 Wet 36.7F - 37F 32F 5 0% 0.00 in - 0% 0 mhos 6 - Yes Slight - 0.0 iph
03/22/2017 21:59 Wet 36.7F - 37F 32F 10 0% 0.00 in - 0% 0 mhos 5 - Yes Slight - 0.0 iph
03/22/2017 21:49 Wet 36.9F - 37F 32F 5 0% 0.00 in - 0% 0 mhos 3 - None None - 0.0 iph
Date/Time
(MDT)
Sf
Temp Chem Water Layer Surface Precipitation
Sfc Pvt Sub Frz Factor Pct Dpth DpthThk IcePct Cond Salin FI Type Intens Accum Rate
03/22/2017 21:45 Wet 36.9F - 37F 32F 5 0% 0.00 in - 0% 0 mhos 4 - None None - 0.0 iph
03/22/2017 21:39 Wet 36.9F - 37F 32F 10 0% 0.10 in - 0% 0 mhos 3 - None None - 0.0 iph
03/22/2017 21:30 Wet 36.3F - 37F 32F 10 0% 0.00 in - 0% 0 mhos 8 - None None - 0.0 iph
03/22/2017 21:29 Wet 36.7F - 37F 32F 15 0% 0.00 in - 0% 0 mhos 8 - None None - 0.0 iph
03/22/2017 21:19 Wet 36.1F - 37F 32F 5 0% 0.00 in - 0% 0 mhos 7 - None None - 0.0 iph
03/22/2017 21:15 Wet 36.1F - 37F 32F 15 0% 0.00 in - 0% 0 mhos 6 - None None - 0.0 iph
03/22/2017 21:09 Wet 35.8F - 37F 32F 5 0% 0.10 in - 0% 0 mhos 2 - Snow Slight - 0.0 iph
03/22/2017 21:00 Wet 35.2F - 37F 32F 10 0% 0.00 in - 0% 0 mhos 4 - Snow Slight - 0.0 iph
03/22/2017 20:58 Wet 34.7F - 37F 32F 10 0% 0.00 in - 0% 0 mhos 4 - Snow Slight - 0.0 iph
03/22/2017 20:48 Wet 34.9F - 37F 32F 10 0% 0.10 in - 0% 0 mhos 4 - Snow Slight - 0.0 iph
03/22/2017 20:45 Wet 34.7F - 37F 32F 5 0% 0.00 in - 0% 0 mhos 5 - Snow Slight - 0.0 iph
03/22/2017 20:38 Wet 34.3F - 37F 32F 15 0% 0.00 in - 0% 0 mhos 5 - Snow Slight - 0.0 iph
03/22/2017 20:30 Wet 33.4F - 37F 32F 5 0% 0.00 in - 0% 0 mhos 4 - Snow Slight - 0.1 iph
03/22/2017 20:28 Wet 33.3F - 37F 32F 5 0% 0.00 in - 0% 0 mhos 3 - Snow Slight - 0.1 iph
03/22/2017 20:18 Wet 33.1F - 37F 32F 15 0% 0.10 in - 0% 0 mhos 4 - Snow Moderate - 0.1 iph
Date/Time
(MDT)
Sf
Temp Chem Water Layer Surface Precipitation
Sfc Pvt Sub Frz Factor Pct Dpth DpthThk IcePct Cond Salin FI Type Intens Accum Rate
03/22/2017 20:15 Wet 33.3F - 37F 32F 15 0% 0.10 in - 0% 0 mhos 3 - Snow Slight - 0.1 iph
03/22/2017 20:08 Wet 33.3F - 37F 32F 5 0% 0.00 in - 0% 0 mhos 1 - Snow Heavy - 0.3 iph
03/22/2017 20:00 Wet 34.0F - 37F 32F 5 0% 0.10 in - 0% 0 mhos 2 - Snow Moderate - 0.2 iph
03/22/2017 19:58 Wet 34.5F - 37F 32F 5 0% 0.10 in - 0% 0 mhos 2 - Snow Moderate - 0.3 iph
03/22/2017 19:48 Wet 38.3F - 37F 32F 10 0% 0.10 in - 0% 0 mhos 3 - Snow Slight - 0.0 iph
03/22/2017 19:45 Wet 38.5F - 37F 32F 5 0% 0.10 in - 0% 0 mhos 3 - Snow Slight - 0.0 iph
03/22/2017 19:38 Wet 39.9F - 37F 32F 15 0% 0.00 in - 0% 0 mhos 4 - Snow Slight - 0.0 iph
03/22/2017 19:30 Wet 42.3F - 37F 32F 20 0% 0.00 in - 0% 0 mhos 12 - Rain Slight - 0.1 iph
03/22/2017 19:28 Wet 42.3F - 37F 32F 20 0% 0.00 in - 0% 0 mhos 8 - Yes Moderate - 0.0 iph
03/22/2017 19:18 Wet 42.4F - 37F 32F 10 0% 0.10 in - 0% 0 mhos 3 - Rain Slight - 0.0 iph
03/22/2017 19:15 Wet 42.8F - 37F 32F 20 0% 0.00 in - 0% 0 mhos 16 - Yes Moderate - 0.0 iph
03/22/2017 19:08 Wet 42.8F - 37F 32F 20 0% 0.00 in - 0% 0 mhos 19 - Yes Moderate - 0.0 iph
03/22/2017 19:00 Wet 42.8F - 37F 32F 10 0% 0.00 in - 0% 0 mhos 21 - Rain Slight - 0.1 iph
03/22/2017 18:58 Wet 43.0F - 37F 32F 5 0% 0.00 in - 0% 0 mhos 5 - Rain Slight - 0.0 iph
03/22/2017 18:48 Wet 43.5F - 37F 32F 5 0% 0.00 in - 0% 0 mhos 7 - None None - 0.0 iph
Date/Time
(MDT)
Sf
Temp Chem Water Layer Surface Precipitation
Sfc Pvt Sub Frz Factor Pct Dpth DpthThk IcePct Cond Salin FI Type Intens Accum Rate
03/22/2017 18:45 Wet 44.1F - 37F 32F 15 0% 0.10 in - 0% 0 mhos 3 - None None - 0.0 iph
03/22/2017 18:38 Wet 44.2F - 37F 32F 5 0% 0.00 in - 0% 0 mhos 9 - None None - 0.0 iph
03/22/2017 18:30 Wet 45.3F - 37F 32F 10 0% 0.00 in - 0% 0 mhos 6 - None None - 0.0 iph
03/22/2017 18:28 Wet 45.3F - 37F 32F 10 0% 0.00 in - 0% 0 mhos 4 - None None - 0.0 iph
03/22/2017 18:18 Wet 44.8F - 37F 32F 10 0% 0.00 in - 0% 0 mhos 19 - Yes Moderate - 0.0 iph
03/22/2017 18:15 Wet 45.0F - 37F 32F 10 0% 0.00 in - 0% 0 mhos 10 - Rain Slight - 0.1 iph
03/22/2017 18:08 Wet 45.9F - 37F 32F 10 0% 0.00 in - 0% 0 mhos 11 - None None - 0.0 iph
03/22/2017 18:00 Wet 46.0F - 37F 32F 5 0% 0.00 in - 0% 0 mhos 6 - None None - 0.0 iph
03/22/2017 17:58 Wet 46.0F - 37F 32F 5 0% 0.00 in - 0% 0 mhos 5 - None None - 0.0 iph
03/22/2017 17:48 Wet 46.9F - 37F 32F 5 0% 0.00 in - 0% 0 mhos 3 - None None - 0.0 iph
03/22/2017 17:45 Wet 47.1F - 37F 32F 5 0% 0.00 in - 0% 0 mhos 3 - None None - 0.0 iph
03/22/2017 17:38 Wet 47.5F - 37F 32F 5 0% 0.10 in - 0% 0 mhos 2 - None None - 0.0 iph
03/22/2017 17:30 Wet 48.4F - 37F 32F 5 0% 0.00 in - 0% 0 mhos 3 - None None - 0.0 iph
03/22/2017 17:28 Wet 48.4F - 36F 32F 10 0% 0.10 in - 0% 0 mhos 3 - None None - 0.0 iph
03/22/2017 17:18 Wet 47.1F - 36F 32F 15 0% 0.00 in - 0% 0 mhos 6 - Yes Moderate - 0.0 iph
Date/Time
(MDT)
Sf
Temp Chem Water Layer Surface Precipitation
Sfc Pvt Sub Frz Factor Pct Dpth DpthThk IcePct Cond Salin FI Type Intens Accum Rate
03/22/2017 17:15 Wet 46.8F - 36F 32F 5 0% 0.00 in - 0% 0 mhos 5 - Snow Slight - 0.0 iph
03/22/2017 17:08 Wet 44.6F - 36F 32F 20 0% 0.00 in - 0% 0 mhos 5 - Snow Slight - 0.0 iph
03/22/2017 17:00 Wet 45.0F - 36F 32F 10 0% 0.00 in - 0% 0 mhos 8 - Rain Slight - 0.1 iph
03/22/2017 16:58 Wet 45.7F - 36F 32F 15 0% 0.00 in - 0% 0 mhos 10 - Yes Moderate - 0.0 iph
03/22/2017 16:48 Wet 45.3F - 36F 32F 10 0% 0.00 in - 0% 0 mhos 9 - None None - 0.0 iph
03/22/2017 16:45 Wet 46.0F - 36F 32F 25 0% 0.00 in - 0% 0 mhos 13 - Yes Moderate - 0.0 iph
03/22/2017 16:37 Wet 45.0F - 36F 32F 30 0% 0.00 in - 0% 0 mhos 13 - Rain Moderate - 0.2 iph
03/22/2017 16:30 Wet 47.3F - 36F 32F 15 0% 0.00 in - 0% 0 mhos 15 - Rain Slight - 0.0 iph
03/22/2017 16:27 Wet 47.7F - 36F 32F 15 0% 0.00 in - 0% 0 mhos 14 - None None - 0.0 iph
03/22/2017 16:17 Wet 49.1F - 36F 32F 10 0% 0.00 in - 0% 0 mhos 10 - None None - 0.0 iph
03/22/2017 16:15 Wet 49.8F - 36F 32F 15 0% 0.00 in - 0% 0 mhos 13 - None None - 0.0 iph
03/22/2017 16:07 Wet 50.9F - 36F 32F 10 0% 0.00 in - 0% 0 mhos 10 - None None - 0.0 iph
03/22/2017 16:00 Wet 54.5F - 36F 32F 10 0% 0.00 in - 0% 0 mhos 10 - Yes Slight - 0.0 iph
03/22/2017 15:57 Wet 50.5F - 36F 32F 15 0% 0.00 in - 0% 0 mhos 21 - Yes Slight - 0.0 iph
03/22/2017 15:47 Wet 49.6F - 36F 32F 15 0% 0.00 in - 0% 0 mhos 13 - Yes Moderate - 0.0 iph
Date/Time
(MDT)
Sf
Temp Chem Water Layer Surface Precipitation
Sfc Pvt Sub Frz Factor Pct Dpth DpthThk IcePct Cond Salin FI Type Intens Accum Rate
03/22/2017 15:45 Wet 49.5F - 36F 32F 15 0% 0.00 in - 0% 0 mhos 9 - Yes Moderate - 0.0 iph
03/22/2017 15:37 Wet 49.3F - 36F 32F 40 0% 0.00 in - 0% 0 mhos 23 - Snow Slight - 0.0 iph
03/22/2017 15:30 Wet 50.2F - 36F 32F 10 0% 0.00 in - 0% 0 mhos 13 - Yes Moderate - 0.0 iph
03/22/2017 15:27 Wet 50.9F - 36F 32F 10 0% 0.00 in - 0% 0 mhos 10 - Yes Moderate - 0.0 iph
03/22/2017 15:17 Wet 54.1F - 36F 32F 15 0% 0.00 in - 0% 0 mhos 14 - None None - 0.0 iph
03/22/2017 15:15 Wet 54.3F - 36F 32F 10 0% 0.00 in - 0% 0 mhos 9 - None None - 0.0 iph
03/22/2017 15:07 Wet 55.2F - 36F 32F 15 0% 0.00 in - 0% 0 mhos 9 - Rain Slight - 0.0 iph
03/22/2017 15:00 Wet 57.0F - 36F 32F 20 0% 0.00 in - 0% 0 mhos 16 - None None - 0.0 iph
03/22/2017 14:57 Wet 59.7F - 36F 32F 20 0% 0.00 in - 0% 0 mhos 10 - None None - 0.0 iph
03/22/2017 14:47 Wet 54.5F - 36F 32F 10 0% 0.00 in - 0% 0 mhos 6 - Yes Moderate - 0.0 iph
03/22/2017 14:45 Wet 53.4F - 36F 32F 30 0% 0.00 in - 0% 0 mhos 28 - Yes Moderate - 0.0 iph
03/22/2017 14:37 Wet 50.9F - 36F 32F 30 0% 0.00 in - 0% 0 mhos 8 - Yes Moderate - 0.0 iph
03/22/2017 14:30 Wet 52.5F - 36F 32F 25 0% 0.00 in - 0% 0 mhos 9 - Rain Slight - 0.1 iph
03/22/2017 14:27 Wet 52.9F - 36F 32F 25 0% 0.00 in - 0% 0 mhos 11 - Rain Slight - 0.1 iph
03/22/2017 14:17 Wet 57.0F - 36F 32F 15 0% 0.00 in - 0% 0 mhos 8 - Rain Slight - 0.0 iph
Date/Time
(MDT)
Sf
Temp Chem Water Layer Surface Precipitation
Sfc Pvt Sub Frz Factor Pct Dpth DpthThk IcePct Cond Salin FI Type Intens Accum Rate
03/22/2017 14:15 Wet 58.5F - 36F 32F 20 0% 0.00 in - 0% 0 mhos 4 - Rain Slight - 0.0 iph
03/22/2017 14:07 Wet 63.1F - 36F 32F 15 0% 0.10 in - 0% 0 mhos 2 - Rain Slight - 0.0 iph
03/22/2017 14:00 Dry 71.8F - 36F - - - - - - 0 mhos 0 - None None - 0.0 iph
03/22/2017 13:57 Dry 73.9F - 36F - - - - - - 0 mhos 0 - None None - 0.0 iph
03/22/2017 13:47 Dry 77.9F - 36F - - - - - - 0 mhos 0 - None None - 0.0 iph
03/22/2017 13:45 Dry 77.0F - 36F - - - - - - 0 mhos 0 - None None - 0.0 iph
03/22/2017 13:37 Dry 68.5F - 36F - - - - - - 0 mhos 0 - None None - 0.0 iph
03/22/2017 13:30 Dry 65.1F - 36F - - - - - - 0 mhos 1 - None None - 0.0 iph
03/22/2017 13:27 Wet 66.9F - 36F 32F 5 0% 0.00 in - 0% 0 mhos 1 - None None - 0.0 iph
03/22/2017 13:17 Wet 64.0F - 36F 32F 25 0% 0.00 in - 0% 0 mhos 7 - None None - 0.0 iph
03/22/2017 13:15 Wet 64.0F - 36F 32F 15 0% 0.00 in - 0% 0 mhos 11 - None None - 0.0 iph
03/22/2017 13:07 Wet 59.9F - 36F 32F 25 0% 0.00 in - 0% 0 mhos 20 - None None - 0.0 iph
03/22/2017 13:00 Wet 63.7F - 36F 32F 15 0% 0.00 in - 0% 0 mhos 19 - None None - 0.0 iph
03/22/2017 12:57 Wet 64.8F - 36F 32F 25 0% 0.00 in - 0% 0 mhos 17 - None None - 0.0 iph
03/22/2017 12:47 Wet 61.2F - 36F 32F 15 0% 0.00 in - 0% 0 mhos 15 - None None - 0.0 iph
Date/Time
(MDT)
Sf
Temp Chem Water Layer Surface Precipitation
Sfc Pvt Sub Frz Factor Pct Dpth DpthThk IcePct Cond Salin FI Type Intens Accum Rate
03/22/2017 12:45 Wet 59.4F - 36F 32F 20 0% 0.00 in - 0% 0 mhos 12 - None None - 0.0 iph
03/22/2017 12:37 Wet 53.4F - 36F 32F 15 0% 0.00 in - 0% 0 mhos 21 - Rain Slight - 0.0 iph
03/22/2017 12:30 Wet 53.4F - 36F 32F 10 0% 0.00 in - 0% 0 mhos 22 - Rain Slight - 0.0 iph
03/22/2017 12:27 Wet 52.9F - 36F 32F 10 0% 0.00 in - 0% 0 mhos 19 - None None - 0.0 iph
03/22/2017 12:17 Wet 50.0F - 36F 32F 10 0% 0.00 in - 0% 0 mhos 19 - None None - 0.0 iph
03/22/2017 12:15 Wet 49.6F - 36F 32F 10 0% 0.00 in - 0% 0 mhos 17 - None None - 0.0 iph
03/22/2017 12:06 Wet 51.3F - 36F 32F 15 0% 0.00 in - 0% 0 mhos 12 - None None - 0.0 iph
03/22/2017 12:00 Wet 48.4F - 36F 32F 15 0% 0.00 in - 0% 0 mhos 5 - None None - 0.0 iph
03/22/2017 11:56 Wet 47.8F - 36F 32F 10 0% 0.00 in - 0% 0 mhos 11 - None None - 0.0 iph
03/22/2017 11:46 Wet 47.8F - 36F 32F 15 0% 0.00 in - 0% 0 mhos 11 - None None - 0.0 iph
03/22/2017 11:45 Wet 48.0F - 36F 32F 10 0% 0.00 in - 0% 0 mhos 11 - Yes Moderate - 0.0 iph
03/22/2017 11:36 Wet 50.7F - 36F 32F 10 0% 0.00 in - 0% 0 mhos 14 - Yes Moderate - 0.0 iph
03/22/2017 11:30 Wet 45.7F - 36F 32F 15 0% 0.00 in - 0% 0 mhos 8 - Yes Moderate - 0.0 iph
03/22/2017 11:26 Wet 46.4F - 36F 32F 10 0% 0.00 in - 0% 0 mhos 11 - None None - 0.0 iph
03/22/2017 11:16 Wet 48.4F - 36F 32F 15 0% 0.00 in - 0% 0 mhos 5 - None None - 0.0 iph
Date/Time
(MDT)
Sf
Temp Chem Water Layer Surface Precipitation
Sfc Pvt Sub Frz Factor Pct Dpth DpthThk IcePct Cond Salin FI Type Intens Accum Rate
03/22/2017 11:15 Wet 48.7F - 36F 32F 15 0% 0.00 in - 0% 0 mhos 6 - None None - 0.0 iph
03/22/2017 11:06 Wet 50.7F - 36F 32F 15 0% 0.00 in - 0% 0 mhos 9 - Rain Slight - 0.0 iph
03/22/2017 11:00 Wet 53.6F - 36F 32F 10 0% 0.00 in - 0% 0 mhos 8 - None None - 0.0 iph
03/22/2017 10:56 Wet 48.4F - 36F 32F 5 0% 0.00 in - 0% 0 mhos 8 - Yes Moderate - 0.0 iph
03/22/2017 10:46 Wet 46.0F - 36F 32F 20 0% 0.00 in - 0% 0 mhos 23 - None None - 0.0 iph
03/22/2017 10:45 Wet 44.6F - 36F 32F 30 0% 0.00 in - 0% 0 mhos 15 - None None - 0.0 iph
03/22/2017 10:36 Wet 43.5F - 36F 32F 10 0% 0.00 in - 0% 0 mhos 17 - None None - 0.0 iph
03/22/2017 10:30 Wet 43.3F - 36F 32F 15 0% 0.00 in - 0% 0 mhos 6 - None None - 0.0 iph
03/22/2017 10:26 Wet 41.5F - 36F 32F 20 0% 0.00 in - 0% 0 mhos 6 - None None - 0.0 iph
03/22/2017 10:16 Wet 40.6F - 36F 32F 20 0% 0.00 in - 0% 0 mhos 10 - None None - 0.0 iph
03/22/2017 10:15 Wet 40.6F - 36F 32F 15 0% 0.00 in - 0% 0 mhos 10 - None None - 0.0 iph
03/22/2017 10:06 Wet 38.7F - 36F 32F 45 0% 0.00 in - 0% 0 mhos 11 - Rain Moderate - 0.2 iph
03/22/2017 10:00 Wet 38.7F - 36F 32F 35 0% 0.00 in - 0% 0 mhos 24 - Yes Moderate - 0.0 iph
03/22/2017 09:56 Wet 38.7F - 36F 32F 15 0% 0.00 in - 0% 0 mhos 7 - Yes Moderate - 0.0 iph
03/22/2017 09:46 Wet 40.5F - 36F 32F 10 0% 0.00 in - 0% 0 mhos 14 - None None - 0.0 iph
Date/Time
(MDT)
Sf
Temp Chem Water Layer Surface Precipitation
Sfc Pvt Sub Frz Factor Pct Dpth DpthThk IcePct Cond Salin FI Type Intens Accum Rate
03/22/2017 09:45 Wet 40.6F - 36F 32F 10 0% 0.00 in - 0% 0 mhos 14 - None None - 0.0 iph
03/22/2017 09:36 Wet 40.5F - 36F 32F 10 0% 0.00 in - 0% 0 mhos 9 - None None - 0.0 iph
03/22/2017 09:30 Wet 39.7F - 36F 32F 10 0% 0.00 in - 0% 0 mhos 9 - None None - 0.0 iph
03/22/2017 09:26 Wet 39.2F - 36F 32F 10 0% 0.00 in - 0% 0 mhos 8 - None None - 0.0 iph
03/22/2017 09:16 Wet 38.7F - 36F 32F 10 0% 0.00 in - 0% 0 mhos 10 - None None - 0.0 iph
03/22/2017 09:15 Wet 38.5F - 36F 32F 10 0% 0.00 in - 0% 0 mhos 9 - None None - 0.0 iph
03/22/2017 09:05 Wet 38.1F - 36F 32F 10 0% 0.00 in - 0% 0 mhos 11 - None None - 0.0 iph
03/22/2017 09:00 Wet 37.2F - 36F 32F 15 0% 0.00 in - 0% 0 mhos 8 - None None - 0.0 iph
03/22/2017 08:55 Wet 37.2F - 36F 32F 20 0% 0.00 in - 0% 0 mhos 12 - None None - 0.0 iph
03/22/2017 08:45 Wet 36.7F - 36F 32F 10 0% 0.00 in - 0% 0 mhos 6 - None None - 0.0 iph
03/22/2017 08:45 Wet 36.9F - 36F 32F 10 0% 0.00 in - 0% 0 mhos 5 - None None - 0.0 iph
03/22/2017 08:35 Wet 36.5F - 36F 32F 15 0% 0.00 in - 0% 0 mhos 5 - Yes Moderate - 0.0 iph
03/22/2017 08:30 Wet 36.0F - 36F 32F 35 0% 0.00 in - 0% 0 mhos 26 - Yes Moderate - 0.0 iph
03/22/2017 08:25 Wet 35.6F - 36F 32F 65 0% 0.00 in - 0% 0 mhos 23 - Yes Moderate - 0.0 iph
Change End Date:

Copyright © 1998-2015 Vaisala, Inc.
All Rights Reserved
Send comments about the data to:
SCAN Web ® is a registered trademark of Vaisala, Inc.
SCAN Web Version 6.0